Tracking 18951 objects as of 21-Jan-2018
HD Live streaming from Space Station
objects crossing your sky now

COSMOS 2039

Track COSMOS 2039 now!
10-day predictions
COSMOS 2039 is classified as:


NORAD ID: 20233
Int'l Code: 1989-074B
Perigee: 1,392.7 km
Apogee: 1,416.5 km
Inclination: 82.6 °
Period: 113.7 minutes
Semi major axis: 7775 km
RCS: 1.1884 m2 (large)
Launch date: September 14, 1989
Source: Commonwealth of Independent States (former USSR) (CIS)
Launch site: PLESETSK MISSILE AND SPACE COMPLEX (PKMTR)
aabbcc
Your satellite tracking list
Your tracking list is empty




NASA's NSSDC Master Catalog

Two Line Element Set (TLE):
1 20233U 89074B   18020.95949066 +.00000004 +00000-0 -34374-4 0  9997
2 20233 082.5809 356.0353 0015303 157.7020 221.2143 12.66191482310169
Source of the keplerian elements: AFSPC